KHQZ

Details ICAO KHQZ
Name MESQUITE METRO
Region United States
Timezone America/Chicago (UTC-5.0)
Plans Departing 15
Arriving 7
Stats Elevation 447 ft / 136 m (AMSL)
Location 32.746963° -96.530419°
Runways 1
Magnetic Variation 3.080° E
Sunrise 2018-05-22 11:24:27 UTC / 2018-05-22 06:24:27 Local
Sunset 2018-05-23 01:24:01 UTC / 2018-05-22 20:24:01 Local
Advertisement - Login to hide

Runways

ID Width Length Bearing (true) Bearing (mag) Surface Threshold Offset Overrun Length
17 100 ft / 30 m 6,017 ft / 1,834 m 180.88° 177.80° Concrete 0 ft / 0 m 0 ft / 0 m
35 100 ft / 30 m 6,017 ft / 1,834 m 0.88° 357.80° Concrete 0 ft / 0 m 0 ft / 0 m

Approach Navaids

Runway Type Ident Frequency Range Bearing (true) Bearing (mag) Slope Elevation
17 Localiser IHQZ 109.75 MHz 18 nm / 33 km 180.88° 177.80° - 447 ft / 136 m (AMSL)
17 Glidescope IHQZ 109.75 MHz 10 nm / 19 km 180.88° 177.80° 3.00° 447 ft / 136 m (AMSL)
17 DME IHQZ 109.75 MHz 18 nm / 33 km - - - 447 ft / 136 m (AMSL)

Map

Weather


0- 5 10 15 20 25 30 35+ Temperature / ° C

Clouds and Precipitation
Forecast for 2018-05-23 00:00 UTC. Updated 3 hours ago

Ground ~20,000 ft ~40,000 ft Winds

METAR

KHQZ 230220Z AUTO 11004KT 10SM CLR 24/18 A2997 RMK AO1 T02430181

TAF

Not found

Frequencies

Recorded 118.17 MHz AWOS 3
Approach 125.20 MHz REGIONAL APP/DEP
Unicom 123.05 MHz CTAF/UNICOM
Warning: Do not use this data for real-world aviation or navigation. No guarantee of current accuracy is given.